sat.trackr.live / text

‹ back to catalog

STARLINK-31159

NORAD 58740 · 2024-005N

PAYLOAD ACTIVE UNKNOWN

§ Identity

Operator
Country
US
Launch date
2024-01-07
Launch site
AFETR
Launch vehicle
Mass (kg)
RCS (m²)

Purposes: comms

External: N2YO · Heavens-Above · Gunter

§ Orbital elements

Epoch: 2026-09-20T23:18:06.649056Z

Period
94.27 min
Inclination
42.9986°
Eccentricity
0.0001533
Mean motion
15.27577300 rev/d
Perigee alt
482.0 km
Apogee alt
484.1 km
Semi-major
6,861.2 km
B*
3.2895e-5
RAAN
196.5359°
Arg perigee
255.4375°
Mean anomaly
104.6307°
Rev number
15,040

§ Raw data

STARLINK-311591 58740U 24005N   26263.97091029  .00000643  00000+0  32895-4 0  99942 58740  42.9986 196.5359 0001533 255.4375 104.6307 15.27577300150403

JSON: /api/v1/satellites/58740 · /tle

For live sub-satellite position, see the globe view (requires WebGL).

§ Visibility from observer

Set your observer location to see the next 7 days of passes ≥ 10°. The values pass through the URL so the page stays shareable.

No JS? Fill the form by hand. The geolocation button needs JavaScript.